User: anonymous   Login
Location: Canyam�s
(41.5996°N, 2.4450°E)
Time: 12:07:26
(UTC+00:00)
Language:

RESURS DK-1 - Orbit

View from above orbital plane
View from above orbital plane
View from above satellite
View from above satellite

Ground track
Ground track

The orbit data is extracted from the following two-line orbital elements,

1 29228U 06021A   20226.86684886 +.00000035 +00000-0 +99709-5 0  9995
2 29228 069.9355 041.8396 0004978 335.9803 024.1124 15.02558203781373
Epoch (UTC): 13 August 2020 20:48:15
Eccentricity: 0.0004978
inclination: 69.9355°
perigee height: 555 km
apogee height: 562 km
right ascension of ascending node: 41.8396°
argument of perigee: 335.9803°
revolutions per day: 15.02558203
mean anomaly at epoch: 24.1124°
orbit number at epoch: 78137

The dashed part of the orbit path shows where the satellite is in the earth's shadow,  

DLR